Location: Newark
(47.4000°N, 7.5833°E)
Time: 19:12:27
(UTC+00:00)

N. Korean satellite - Pass Details

Date: 03 February 2020
Orbit: 456 x 505 km, 97.2° (Epoch: 19 February)

Event Time Altitude Azimuth Distance (km) Brightness Sun altitude
Rises 17:11:11 0° 197° (SSW) 2,466 10.7 -6.8°
Reaches altitude 10° 17:13:32 10° 213° (SSW) 1,603 10.0 -7.2°
Maximum altitude 17:16:16 22° 266° (W) 1,065 9.5 -7.6°
Drops below altitude 10° 17:19:03 10° 319° (NW) 1,630 9.6 -8.1°
Sets 17:21:27 0° 335° (NNW) 2,522 10.3 -8.5°
